Location: Lane
(33.5226°N, 79.8788°W)
Time: 07:27:28
(UTC+00:00)

Explorer 7 - Pass Details

Date: 03 October 2022
Orbit: 481 x 665 km, 50.3° (Epoch: 28 November)

Event Time Altitude Azimuth Distance (km) Brightness Sun altitude
Rises 16:15:26 0° 260° (W) 2,991 10.5 50.3°
Reaches altitude 10° 16:18:07 10° 273° (W) 2,084 9.7 50.5°
Maximum altitude 16:22:10 26° 330° (NNW) 1,290 8.6 50.8°
Drops below altitude 10° 16:26:13 10° 28° (NNE) 2,064 9.6 51.0°
Sets 16:28:51 0° 41° (NE) 2,956 10.3 51.2°
